SCP
0 -0 -0 -0 0 0 0 0 0 0 0 0 0 0 -0 -0 -0 -0 -0 -0 -0 -0 -0 -0 0 0 0 0 0 -0 0 0 0 0 0 0 0 0 0 0 -0 0 0 0 0 0 0
0 -0 -0 -0 -0 0 0 0 0 0 0 0 0 0 0 -0 -0 0 -0 -0 -0 -0 -0 0 0 0 0 0 -0 -0 -0 0 0 0 0 0 0 0 0 -0 0 0 -0 0 0 0 0
-0 -0 -0 -0 -0 -0 -0 0 0 0 0 0 0 0 0 0 -0 0 -0 -0 -0 -0 -0 -0 0 0 0 0 0 -0 -0 0 0 0 0 0 0 0 0 0 0 0 0 0 0 0 0
-0 -0 -0 -0 -0 -0 -0 -0 -0 -0 -0 0 0 0 0 0 -0 0 -0 -0 -0 -0 -0 0 -0 -0 0 -0 0 -0 -0 -0 -0 0 0 -0 0 0 0 0 0 0 0 0 0 0 -0
-0 -0 0 0 -0 -0 -0 0 -0 -0 -0 -0 -0 -0 -0 -0 0 -0 -0 -0 -0 0 -0 -0 -0 -0 0 0 0 -0 0 0 0 -0 0 0 0 0 0 0 0 0 0 0 0 -0 0
0 -0 0 0 0 -0 0 0 0 0 0 0 0 -0 -0 -0 -0 0 -0 0 0 0 0 -0 0 0 -0 -0 -0 -0 -0 0 0 0 0 0 0 0 0 0 0 0 -0 -0 -0 0 0
0 0 0 0 0 0 0 0 0 0 0 0 0 0 0 -0 -0 -0 0 0 0 0 0 -0 0 0 0 0 0 -0 0 0 0 0 0 0 0 0 0 0 0 0 0 0 0 0 0
0 0 0 0 0 0 0 0 0 0 0 0 0 0 0 -0 -0 0 -0 0 0 0 -0 -0 -0 0 -0 0 -0 -0 0 0 0 0 0 0 0 0 -0 -0 -0 0 0 0 0 0 0
0 0 0 0 0 0 0 0 0 0 0 0 0 -0 -0 -0 -0 0 0 -0 -0 -0 0 0 -0 -0 -0 0 0 0 0 -0 0 0 0 0 0 -0 0 0 0 0 0 0 0 0 0
0 0 0 0 0 0 0 0 0 0 0 0 0 -0 -0 -0 0 0 0 -0 0 0 -0 0 0 0 0 0 0 0 0 -0 0 0 -0 0 -0 0 0 0 0 0 0 0 0 0 0
0 0 0 0 0 0 0 0 0 0 0 0 0 0 -0 0 -0 0 0 -0 -0 0 0 0 0 -0 -0 -0 0 0 0 0 -0 0 0 0 -0 0 0 0 0 0 0 0 0 0 0
0 0 0 0 0 0 0 0 0 0 -0 -0 -0 -0 0 0 0 -0 -0 -0 -0 -0 0 0 0 -0 -0 -0 0 -0 0 0 -0 0 0 0 0 0 0 0 0 0 0 0 0 0 0
0 0 0 0 0 0 0 -0 -0 0 0 -0 -0 -0 0 -0 -0 0 0 -0 0 0 0 0 0 -0 -0 -0 0 0 -0 -0 0 0 0 0 0 0 0 0 0 0 0 0 0 0 0
0 0 0 0 0 0 0 -0 0 0 -0 -0 -0 -0 0 0 0 -0 -0 0 0 -0 0 0 0 -0 -0 0 -0 0 0 0 -0 -0 0 0 0 0 0 0 0 0 0 0 0 0 0
0 0 0 0 0 0 0 0 0 -0 -0 -0 -0 0 0 0 -0 -0 0 0 0 0 0 0 0 -0 0 0 0 0 0 0 0 0 0 0 0 0 0 0 0 0 0 0 0 0 0
0 0 0 0 0 0 0 0 0 0 -0 -0 0 0 0 0 -0 -0 -0 0 0 0 0 0 0 0 0 0 0 0 0 0 0 0 0 0 0 0 0 0 0 0 0 0 0 0 0
0 0 0 0 0 0 0 0 0 0 0 -0 0 0 0 0 0 0 0 0 0 0 0 0 0 0 0 0 0 0 0 0 0 0 0 0 0 0 0 0 0 0 0 0 0 0 0
0 0 0 0 0 0 0 0 0 0 0 0 0 0 0 0 0 -0 -0 0 0 0 0 0 0 0 0 0 0 0 0 0 0 0 0 0 0 0 0 0 0 0 0 0 0 0 0
0 0 0 0 0 0 0 0 0 0 0 0 0 0 0 0 0 0 0 0 0 0 0 0 0 0 0 0 0 0 0 0 0 0 0 0 0 0 0 0 0 0 0 0 0 0 0
0 0 0 0 0 0 0 0 0 0 0 0 0 0 0 0 0 0 0 0 0 0 0 0 0 0 0 0 0 0 0 0 0 0 0 0 0 0 0 0 -0 0 0 0 0 0 0
0 0 0 0 0 0 0 0 0 0 0 0 0 0 0 0 0 0 0 0 0 0 0 0 0 0 0 0 0 0 0 0 0 0 0 0 0 0 0 0 0 0 0 0 0 0 0
0 0 0 0 0 0 0 0 0 0 0 0 0 0 0 0 0 0 0 0 0 0 0 0 0 0 0 0 0 0 0 0 0 0 0 0 0 0 0 0 0 0 0 0 0 0 0
0 0 0 0 0 0 0 0 0 0 0 0 0 0 0 0 0 0 0 0 0 0 0 0 0 0 0 0 0 0 0 0 0 0 0 0 0 0 0 0 0 0 0 -0 -0 0 0
0 0 0 0 0 0 0 0 0 0 0 0 0 0 0 0 0 0 0 0 0 0 0 0 0 0 0 0 0 -0 0 0 0 0 0 0 0 0 0 0 0 0 0 0 0 0 0
0 0 0 0 0 0 0 0 0 0 0 0 0 0 0 0 0 0 0 0 0 0 0 0 0 0 0 0 0 0 -0 0 0 0 0 0 0 0 0 0 0 0 0 0 0 0 0
0 0 0 0 0 0 0 0 0 0 0 0 0 0 0 0 0 0 0 0 0 0 0 0 0 0 0 0 0 0 0 0 0 0 0 0 0 0 0 0 0 0 0 0 0 0 0
0 0 0 0 0 0 0 0 0 0 0 0 0 0 0 0 0 0 0 0 0 0 0 0 0 0 0 0 0 0 0 0 0 0 0 0 0 0 0 0 0 0 0 0 -0 0 0
0 0 0 0 0 0 0 0 0 0 0 0 0 0 0 0 0 0 0 0 0 0 0 0 0 0 0 0 0 0 0 0 0 0 0 0 0 0 0 0 -0 0 0 0 0 0 0
0 0 0 0 0 0 0 0 0 0 0 0 0 0 0 0 0 0 0 -0 0 0 0 0 0 0 0 0 0 0 0 0 0 0 0 0 0 0 0 0 0 0 0 0 0 0 0
Wind_Speed_500mb
37 39 40 39 39 41 42 41 40 39 39 41 45 45 46 48 50 49 48 42 28 24 22 18 14 14 14 17 28 9 5 22 29 38 37 33 37 41 37 39 46 43 37 46 43 48 30
38 38 39 41 41 40 41 42 42 42 44 45 45 47 48 48 48 48 48 48 32 24 21 21 16 12 10 23 5 5 8 17 27 34 29 34 31 36 37 39 36 36 45 37 42 31 35
38 40 40 39 42 42 43 43 42 43 43 46 46 48 48 48 48 47 48 51 37 24 21 19 16 12 20 36 1 6 12 15 25 24 24 28 30 27 36 24 43 31 28 24 34 42 30
44 42 41 43 42 44 45 45 45 45 46 46 48 48 50 52 52 50 48 51 30 21 19 15 13 8 20 9 27 19 17 18 21 21 22 21 27 29 36 28 12 28 30 32 34 36 44
41 42 41 42 44 46 47 45 44 42 43 45 49 52 51 53 51 50 46 44 18 15 17 10 5 8 20 15 23 25 24 19 20 21 19 12 18 30 31 28 22 26 27 39 39 39 35
42 43 43 43 45 47 47 47 46 43 42 44 46 49 57 54 51 45 39 28 13 12 8 6 15 17 28 20 18 29 28 22 21 18 20 18 19 22 27 24 26 32 38 33 34 27 27
44 44 43 45 45 45 45 45 42 42 44 47 53 56 63 72 59 38 27 12 7 2 13 20 13 25 2 2 13 28 30 25 26 23 24 31 22 26 34 35 35 41 40 29 20 27 33
42 45 46 49 46 44 44 44 41 43 46 52 58 61 76 68 47 25 19 17 9 10 17 36 36 32 36 6 16 23 30 27 28 28 28 26 27 33 34 32 36 36 36 28 33 32 25
43 43 46 48 51 43 46 45 45 47 50 56 59 66 75 57 32 15 19 22 20 18 17 13 28 30 33 21 27 29 35 36 23 29 31 31 32 35 31 32 31 28 29 31 34 32 32
46 47 48 50 52 45 47 48 48 48 50 53 57 61 66 45 8 5 13 6 11 10 10 19 18 16 21 21 21 31 39 34 31 30 30 30 35 35 21 25 29 34 31 34 34 29 27
44 47 50 51 51 48 51 51 54 56 56 53 53 53 46 31 10 5 4 4 6 5 8 20 20 21 25 25 8 24 33 32 34 31 22 30 33 32 30 37 28 28 28 30 29 29 29
43 46 47 47 45 47 50 51 53 58 51 53 54 45 33 13 20 12 16 9 7 10 7 13 16 19 25 31 21 27 18 21 36 23 35 38 43 24 21 25 31 31 32 27 28 26 30
45 46 46 46 46 48 53 54 53 56 46 53 49 29 15 3 4 13 11 11 10 11 12 7 18 22 27 18 27 19 30 25 20 9 22 28 37 35 25 24 28 14 16 19 26 27 30
47 45 44 46 45 48 49 54 54 49 47 55 34 11 9 7 10 16 8 15 14 15 10 9 8 12 17 21 23 25 23 23 32 32 27 24 27 32 24 31 29 33 28 22 36 29 32
46 45 46 47 46 47 50 54 51 52 47 55 27 9 11 7 8 4 20 15 10 15 15 14 21 22 13 11 10 10 19 18 14 27 30 18 31 31 25 32 26 26 28 23 18 24 27
43 44 45 44 46 45 45 48 51 52 51 38 31 8 15 6 10 6 13 27 6 11 17 12 17 13 4 6 9 12 7 4 13 17 12 15 21 22 30 37 33 27 20 14 13 10 23
45 45 44 44 44 43 42 45 46 52 51 23 22 13 12 10 9 18 17 4 5 18 11 12 18 13 9 15 12 13 7 9 10 11 9 18 15 18 30 24 25 25 24 21 20 24 17
50 51 45 46 44 41 43 39 39 47 53 30 14 9 8 10 17 22 21 6 6 11 3 12 7 15 14 14 18 20 20 6 13 16 11 4 8 17 35 37 34 35 34 21 10 13 20
51 52 50 48 45 40 42 38 33 34 46 50 16 30 9 12 12 13 8 7 5 8 9 12 5 5 13 9 8 14 11 14 4 10 5 7 3 16 22 30 27 29 32 28 25 27 35
51 57 51 47 36 36 35 35 32 25 31 36 15 8 19 18 23 15 22 12 9 15 7 9 13 8 12 17 12 14 5 4 7 13 11 8 20 26 22 24 5 9 24 31 29 19 26
50 55 47 38 37 36 31 33 28 19 21 31 13 6 6 9 11 13 16 19 15 10 9 3 8 3 11 5 13 24 20 18 16 13 19 4 19 31 35 40 45 46 40 36 39 41 39
49 49 42 37 31 32 30 27 21 19 14 14 16 13 21 31 16 16 11 16 10 8 5 7 6 10 9 11 18 31 30 22 16 16 11 9 8 22 36 41 45 48 46 45 46 44 46
47 42 36 33 29 31 28 23 21 16 15 11 19 20 14 19 14 9 6 12 11 6 9 9 9 6 16 18 21 27 28 32 27 20 19 2 9 13 26 34 30 31 43 44 42 38 26
37 36 35 31 29 28 27 23 20 15 13 12 18 23 26 18 14 10 7 8 14 14 12 15 15 11 13 24 35 41 49 50 47 34 24 8 14 6 12 30 22 17 12 14 20 15 20
34 35 35 32 29 28 27 26 22 17 14 14 13 17 12 14 22 22 12 8 15 12 21 18 18 4 12 21 16 17 24 19 36 35 22 28 14 6 8 13 27 36 12 18 8 19 29
37 37 37 34 30 29 27 28 24 16 15 13 14 7 10 9 6 23 18 16 12 12 16 22 8 7 2 3 5 8 6 7 8 3 14 25 22 8 6 9 7 10 2 10 19 22 28
39 36 32 31 31 31 30 30 26 18 16 14 12 11 8 15 9 12 6 7 10 7 12 15 2 4 2 2 2 8 11 16 5 12 10 9 8 19 15 10 16 11 18 23 15 13 43
36 35 33 29 25 28 28 27 24 19 15 16 13 13 8 11 28 22 25 22 15 11 9 11 8 3 3 6 6 4 8 8 9 16 11 17 8 9 14 12 10 28 21 15 19 34 43
33 33 31 28 28 25 25 24 22 20 16 18 20 17 19 18 19 28 36 38 32 23 13 10 4 4 4 4 1 7 6 8 15 7 3 6 12 8 8 6 8 14 3 11 23 35 43
Wind_Direction_500mb
339 338 337 336 336 337 337 337 335 332 329 329 329 332 334 338 341 344 344 338 317 316 322 337 327 308 298 260 262 309 186 189 191 187 197 221 217 217 219 227 220 231 238 242 234 251 261
342 338 337 335 333 334 333 330 330 329 329 328 327 328 331 333 336 338 336 336 314 302 310 320 322 304 292 260 353 291 149 171 180 178 209 214 217 220 232 238 233 233 236 241 260 241 255
349 349 345 342 339 336 331 327 326 326 327 326 328 327 328 330 332 333 332 331 317 288 297 310 305 295 269 245 245 174 176 164 173 193 206 216 226 237 239 275 253 252 239 240 241 250 238
346 349 349 348 349 343 339 332 327 326 327 328 328 328 326 326 326 328 329 328 313 281 288 297 297 285 264 268 237 211 197 192 203 211 223 223 228 252 238 263 268 246 245 255 250 226 238
343 345 346 348 348 344 339 335 332 330 330 330 329 327 327 325 322 324 326 330 305 287 289 269 238 253 266 219 224 210 204 208 195 209 220 216 227 240 224 244 229 232 241 238 248 244 204
335 339 339 341 340 342 340 339 339 338 337 337 336 331 328 325 319 318 322 331 298 305 279 233 243 258 252 251 209 201 202 204 194 205 212 219 224 228 238 214 234 231 220 235 255 230 189
328 332 332 332 334 339 339 341 342 342 341 339 335 331 327 320 315 305 309 336 295 196 204 220 289 246 27 267 158 197 198 208 206 221 227 208 232 224 228 227 246 265 282 296 282 229 195
330 330 330 329 328 330 334 338 335 335 335 335 335 332 328 328 317 279 259 222 303 311 280 259 253 262 276 223 196 209 196 204 214 225 216 246 221 246 243 242 244 245 266 277 284 293 293
325 325 325 324 324 325 326 329 329 329 331 333 333 334 332 333 316 265 234 235 270 292 281 254 216 230 241 223 252 203 196 212 219 228 241 233 245 219 236 264 261 255 268 268 264 275 270
322 325 327 326 324 322 319 317 319 321 325 330 331 335 336 339 356 354 258 319 252 255 274 149 189 200 202 214 244 241 197 213 239 237 235 250 245 263 215 244 261 262 241 250 259 266 266
328 328 331 331 328 326 322 319 320 319 320 326 330 334 338 344 272 8 82 303 267 234 279 190 122 153 167 178 79 230 191 215 241 250 248 262 245 256 260 261 245 263 270 273 268 267 271
329 329 331 335 336 328 325 323 321 326 325 327 330 334 338 327 341 281 308 288 267 237 271 158 134 176 166 204 179 179 216 237 240 302 310 290 278 300 292 288 251 253 270 266 262 266 257
325 325 327 327 331 330 327 326 327 330 329 327 331 327 327 255 255 312 289 255 241 253 214 104 161 171 186 174 221 182 187 201 228 253 259 281 283 289 257 254 281 226 255 259 252 243 249
323 322 323 324 327 328 329 330 332 334 332 328 334 332 347 325 292 285 279 244 253 260 80 70 292 290 235 182 218 191 198 219 202 233 272 275 270 246 255 260 288 260 247 248 275 282 290
322 324 323 324 327 329 330 332 336 335 337 331 333 344 319 325 225 190 279 255 301 23 9 2 325 273 215 200 265 225 240 268 242 218 237 277 272 279 270 290 259 265 263 296 326 304 280
320 321 326 325 326 330 331 334 336 335 338 334 330 313 236 236 213 230 255 261 314 41 360 308 285 316 283 317 304 286 221 301 303 275 241 273 300 305 305 294 290 272 276 270 261 282 275
322 319 319 321 324 328 329 331 336 335 341 333 318 257 170 173 222 241 249 203 301 85 352 332 337 316 304 320 301 299 233 327 312 267 280 273 249 274 293 277 248 261 242 251 255 249 257
318 323 319 320 322 323 326 328 332 337 341 341 291 272 147 174 234 237 249 72 356 295 337 262 334 320 316 323 302 285 285 220 309 320 311 292 276 261 270 282 270 242 271 257 254 255 266
309 313 312 315 313 320 324 329 330 340 341 345 292 285 193 202 254 280 303 284 175 285 335 328 279 332 318 292 290 283 280 15 18 286 295 322 281 276 273 244 242 257 241 258 270 251 264
304 308 309 312 303 313 320 325 330 334 333 337 291 279 188 211 264 297 315 299 254 125 285 319 304 325 315 323 294 281 291 329 345 341 75 337 264 261 270 298 189 269 304 304 287 262 269
299 306 307 307 304 309 318 316 324 326 327 329 257 4 7 295 45 337 310 308 288 269 124 209 247 64 41 276 296 267 275 325 308 314 297 326 268 271 279 287 288 283 270 248 253 262 264
296 301 305 303 297 300 311 313 310 314 309 298 307 351 345 295 314 296 255 271 288 72 334 127 278 36 347 290 307 310 306 278 271 293 296 152 249 261 275 273 272 272 273 271 266 268 272
295 299 301 299 298 296 296 305 309 303 329 317 342 303 284 297 278 271 357 28 40 3 265 6 16 315 297 310 309 287 283 284 271 275 284 258 285 296 271 280 294 264 256 261 264 265 291
295 293 297 296 293 295 298 298 292 292 285 296 314 318 291 276 256 274 356 314 291 301 290 307 286 274 293 319 300 280 261 252 239 239 230 235 276 286 289 284 267 295 270 291 286 290 305
295 295 295 288 285 287 293 294 292 277 278 258 310 326 310 307 322 293 213 285 296 255 236 263 286 342 328 305 295 286 236 233 233 225 192 201 216 262 254 273 290 282 321 8 4 310 37
293 292 293 283 278 277 283 290 292 269 268 253 295 282 298 295 25 345 339 2 319 333 280 237 86 3 291 295 304 272 302 282 165 163 194 191 204 199 277 258 272 11 222 312 325 284 13
294 296 294 290 277 272 277 282 288 258 257 245 282 283 273 281 286 6 349 329 322 318 294 296 105 80 33 239 266 270 271 330 244 158 166 180 192 220 231 241 264 15 329 314 271 327 335
294 292 289 287 286 278 271 271 290 248 240 242 252 255 249 275 286 294 269 254 247 259 254 0 257 243 154 229 232 288 284 288 279 153 189 184 214 205 227 232 247 5 352 345 355 336 338
292 290 289 284 282 285 269 260 279 244 232 231 251 255 256 271 263 281 272 259 247 244 232 240 60 258 132 226 244 300 311 310 322 290 29 228 206 179 210 286 58 260 132 18 350 340 331
Wind_Speed_850mb
37 39 40 39 39 41 42 41 40 39 39 41 45 45 46 48 50 49 48 42 28 24 22 18 14 14 14 17 28 9 5 22 29 38 37 33 37 41 37 39 46 43 37 46 43 48 30
38 38 39 41 41 40 41 42 42 42 44 45 45 47 48 48 48 48 48 48 32 24 21 21 16 12 10 23 5 5 8 17 27 34 29 34 31 36 37 39 36 36 45 37 42 31 35
38 40 40 39 42 42 43 43 42 43 43 46 46 48 48 48 48 47 48 51 37 24 21 19 16 12 20 36 1 6 12 15 25 24 24 28 30 27 36 24 43 31 28 24 34 42 30
44 42 41 43 42 44 45 45 45 45 46 46 48 48 50 52 52 50 48 51 30 21 19 15 13 8 20 9 27 19 17 18 21 21 22 21 27 29 36 28 12 28 30 32 34 36 44
41 42 41 42 44 46 47 45 44 42 43 45 49 52 51 53 51 50 46 44 18 15 17 10 5 8 20 15 23 25 24 19 20 21 19 12 18 30 31 28 22 26 27 39 39 39 35
42 43 43 43 45 47 47 47 46 43 42 44 46 49 57 54 51 45 39 28 13 12 8 6 15 17 28 20 18 29 28 22 21 18 20 18 19 22 27 24 26 32 38 33 34 27 27
44 44 43 45 45 45 45 45 42 42 44 47 53 56 63 72 59 38 27 12 7 2 13 20 13 25 2 2 13 28 30 25 26 23 24 31 22 26 34 35 35 41 40 29 20 27 33
42 45 46 49 46 44 44 44 41 43 46 52 58 61 76 68 47 25 19 17 9 10 17 36 36 32 36 6 16 23 30 27 28 28 28 26 27 33 34 32 36 36 36 28 33 32 25
43 43 46 48 51 43 46 45 45 47 50 56 59 66 75 57 32 15 19 22 20 18 17 13 28 30 33 21 27 29 35 36 23 29 31 31 32 35 31 32 31 28 29 31 34 32 32
46 47 48 50 52 45 47 48 48 48 50 53 57 61 66 45 8 5 13 6 11 10 10 19 18 16 21 21 21 31 39 34 31 30 30 30 35 35 21 25 29 34 31 34 34 29 27
44 47 50 51 51 48 51 51 54 56 56 53 53 53 46 31 10 5 4 4 6 5 8 20 20 21 25 25 8 24 33 32 34 31 22 30 33 32 30 37 28 28 28 30 29 29 29
43 46 47 47 45 47 50 51 53 58 51 53 54 45 33 13 20 12 16 9 7 10 7 13 16 19 25 31 21 27 18 21 36 23 35 38 43 24 21 25 31 31 32 27 28 26 30
45 46 46 46 46 48 53 54 53 56 46 53 49 29 15 3 4 13 11 11 10 11 12 7 18 22 27 18 27 19 30 25 20 9 22 28 37 35 25 24 28 14 16 19 26 27 30
47 45 44 46 45 48 49 54 54 49 47 55 34 11 9 7 10 16 8 15 14 15 10 9 8 12 17 21 23 25 23 23 32 32 27 24 27 32 24 31 29 33 28 22 36 29 32
46 45 46 47 46 47 50 54 51 52 47 55 27 9 11 7 8 4 20 15 10 15 15 14 21 22 13 11 10 10 19 18 14 27 30 18 31 31 25 32 26 26 28 23 18 24 27
43 44 45 44 46 45 45 48 51 52 51 38 31 8 15 6 10 6 13 27 6 11 17 12 17 13 4 6 9 12 7 4 13 17 12 15 21 22 30 37 33 27 20 14 13 10 23
45 45 44 44 44 43 42 45 46 52 51 23 22 13 12 10 9 18 17 4 5 18 11 12 18 13 9 15 12 13 7 9 10 11 9 18 15 18 30 24 25 25 24 21 20 24 17
50 51 45 46 44 41 43 39 39 47 53 30 14 9 8 10 17 22 21 6 6 11 3 12 7 15 14 14 18 20 20 6 13 16 11 4 8 17 35 37 34 35 34 21 10 13 20
51 52 50 48 45 40 42 38 33 34 46 50 16 30 9 12 12 13 8 7 5 8 9 12 5 5 13 9 8 14 11 14 4 10 5 7 3 16 22 30 27 29 32 28 25 27 35
51 57 51 47 36 36 35 35 32 25 31 36 15 8 19 18 23 15 22 12 9 15 7 9 13 8 12 17 12 14 5 4 7 13 11 8 20 26 22 24 5 9 24 31 29 19 26
50 55 47 38 37 36 31 33 28 19 21 31 13 6 6 9 11 13 16 19 15 10 9 3 8 3 11 5 13 24 20 18 16 13 19 4 19 31 35 40 45 46 40 36 39 41 39
49 49 42 37 31 32 30 27 21 19 14 14 16 13 21 31 16 16 11 16 10 8 5 7 6 10 9 11 18 31 30 22 16 16 11 9 8 22 36 41 45 48 46 45 46 44 46
47 42 36 33 29 31 28 23 21 16 15 11 19 20 14 19 14 9 6 12 11 6 9 9 9 6 16 18 21 27 28 32 27 20 19 2 9 13 26 34 30 31 43 44 42 38 26
37 36 35 31 29 28 27 23 20 15 13 12 18 23 26 18 14 10 7 8 14 14 12 15 15 11 13 24 35 41 49 50 47 34 24 8 14 6 12 30 22 17 12 14 20 15 20
34 35 35 32 29 28 27 26 22 17 14 14 13 17 12 14 22 22 12 8 15 12 21 18 18 4 12 21 16 17 24 19 36 35 22 28 14 6 8 13 27 36 12 18 8 19 29
37 37 37 34 30 29 27 28 24 16 15 13 14 7 10 9 6 23 18 16 12 12 16 22 8 7 2 3 5 8 6 7 8 3 14 25 22 8 6 9 7 10 2 10 19 22 28
39 36 32 31 31 31 30 30 26 18 16 14 12 11 8 15 9 12 6 7 10 7 12 15 2 4 2 2 2 8 11 16 5 12 10 9 8 19 15 10 16 11 18 23 15 13 43
36 35 33 29 25 28 28 27 24 19 15 16 13 13 8 11 28 22 25 22 15 11 9 11 8 3 3 6 6 4 8 8 9 16 11 17 8 9 14 12 10 28 21 15 19 34 43
33 33 31 28 28 25 25 24 22 20 16 18 20 17 19 18 19 28 36 38 32 23 13 10 4 4 4 4 1 7 6 8 15 7 3 6 12 8 8 6 8 14 3 11 23 35 43
Wind_Direction_850mb
339 338 337 336 336 337 337 337 335 332 329 329 329 332 334 338 341 344 344 338 317 316 322 337 327 308 298 260 262 309 186 189 191 187 197 221 217 217 219 227 220 231 238 242 234 251 261
342 338 337 335 333 334 333 330 330 329 329 328 327 328 331 333 336 338 336 336 314 302 310 320 322 304 292 260 353 291 149 171 180 178 209 214 217 220 232 238 233 233 236 241 260 241 255
349 349 345 342 339 336 331 327 326 326 327 326 328 327 328 330 332 333 332 331 317 288 297 310 305 295 269 245 245 174 176 164 173 193 206 216 226 237 239 275 253 252 239 240 241 250 238
346 349 349 348 349 343 339 332 327 326 327 328 328 328 326 326 326 328 329 328 313 281 288 297 297 285 264 268 237 211 197 192 203 211 223 223 228 252 238 263 268 246 245 255 250 226 238
343 345 346 348 348 344 339 335 332 330 330 330 329 327 327 325 322 324 326 330 305 287 289 269 238 253 266 219 224 210 204 208 195 209 220 216 227 240 224 244 229 232 241 238 248 244 204
335 339 339 341 340 342 340 339 339 338 337 337 336 331 328 325 319 318 322 331 298 305 279 233 243 258 252 251 209 201 202 204 194 205 212 219 224 228 238 214 234 231 220 235 255 230 189
328 332 332 332 334 339 339 341 342 342 341 339 335 331 327 320 315 305 309 336 295 196 204 220 289 246 27 267 158 197 198 208 206 221 227 208 232 224 228 227 246 265 282 296 282 229 195
330 330 330 329 328 330 334 338 335 335 335 335 335 332 328 328 317 279 259 222 303 311 280 259 253 262 276 223 196 209 196 204 214 225 216 246 221 246 243 242 244 245 266 277 284 293 293
325 325 325 324 324 325 326 329 329 329 331 333 333 334 332 333 316 265 234 235 270 292 281 254 216 230 241 223 252 203 196 212 219 228 241 233 245 219 236 264 261 255 268 268 264 275 270
322 325 327 326 324 322 319 317 319 321 325 330 331 335 336 339 356 354 258 319 252 255 274 149 189 200 202 214 244 241 197 213 239 237 235 250 245 263 215 244 261 262 241 250 259 266 266
328 328 331 331 328 326 322 319 320 319 320 326 330 334 338 344 272 8 82 303 267 234 279 190 122 153 167 178 79 230 191 215 241 250 248 262 245 256 260 261 245 263 270 273 268 267 271
329 329 331 335 336 328 325 323 321 326 325 327 330 334 338 327 341 281 308 288 267 237 271 158 134 176 166 204 179 179 216 237 240 302 310 290 278 300 292 288 251 253 270 266 262 266 257
325 325 327 327 331 330 327 326 327 330 329 327 331 327 327 255 255 312 289 255 241 253 214 104 161 171 186 174 221 182 187 201 228 253 259 281 283 289 257 254 281 226 255 259 252 243 249
323 322 323 324 327 328 329 330 332 334 332 328 334 332 347 325 292 285 279 244 253 260 80 70 292 290 235 182 218 191 198 219 202 233 272 275 270 246 255 260 288 260 247 248 275 282 290
322 324 323 324 327 329 330 332 336 335 337 331 333 344 319 325 225 190 279 255 301 23 9 2 325 273 215 200 265 225 240 268 242 218 237 277 272 279 270 290 259 265 263 296 326 304 280
320 321 326 325 326 330 331 334 336 335 338 334 330 313 236 236 213 230 255 261 314 41 360 308 285 316 283 317 304 286 221 301 303 275 241 273 300 305 305 294 290 272 276 270 261 282 275
322 319 319 321 324 328 329 331 336 335 341 333 318 257 170 173 222 241 249 203 301 85 352 332 337 316 304 320 301 299 233 327 312 267 280 273 249 274 293 277 248 261 242 251 255 249 257
318 323 319 320 322 323 326 328 332 337 341 341 291 272 147 174 234 237 249 72 356 295 337 262 334 320 316 323 302 285 285 220 309 320 311 292 276 261 270 282 270 242 271 257 254 255 266
309 313 312 315 313 320 324 329 330 340 341 345 292 285 193 202 254 280 303 284 175 285 335 328 279 332 318 292 290 283 280 15 18 286 295 322 281 276 273 244 242 257 241 258 270 251 264
304 308 309 312 303 313 320 325 330 334 333 337 291 279 188 211 264 297 315 299 254 125 285 319 304 325 315 323 294 281 291 329 345 341 75 337 264 261 270 298 189 269 304 304 287 262 269
299 306 307 307 304 309 318 316 324 326 327 329 257 4 7 295 45 337 310 308 288 269 124 209 247 64 41 276 296 267 275 325 308 314 297 326 268 271 279 287 288 283 270 248 253 262 264
296 301 305 303 297 300 311 313 310 314 309 298 307 351 345 295 314 296 255 271 288 72 334 127 278 36 347 290 307 310 306 278 271 293 296 152 249 261 275 273 272 272 273 271 266 268 272
295 299 301 299 298 296 296 305 309 303 329 317 342 303 284 297 278 271 357 28 40 3 265 6 16 315 297 310 309 287 283 284 271 275 284 258 285 296 271 280 294 264 256 261 264 265 291
295 293 297 296 293 295 298 298 292 292 285 296 314 318 291 276 256 274 356 314 291 301 290 307 286 274 293 319 300 280 261 252 239 239 230 235 276 286 289 284 267 295 270 291 286 290 305
295 295 295 288 285 287 293 294 292 277 278 258 310 326 310 307 322 293 213 285 296 255 236 263 286 342 328 305 295 286 236 233 233 225 192 201 216 262 254 273 290 282 321 8 4 310 37
293 292 293 283 278 277 283 290 292 269 268 253 295 282 298 295 25 345 339 2 319 333 280 237 86 3 291 295 304 272 302 282 165 163 194 191 204 199 277 258 272 11 222 312 325 284 13
294 296 294 290 277 272 277 282 288 258 257 245 282 283 273 281 286 6 349 329 322 318 294 296 105 80 33 239 266 270 271 330 244 158 166 180 192 220 231 241 264 15 329 314 271 327 335
294 292 289 287 286 278 271 271 290 248 240 242 252 255 249 275 286 294 269 254 247 259 254 0 257 243 154 229 232 288 284 288 279 153 189 184 214 205 227 232 247 5 352 345 355 336 338
292 290 289 284 282 285 269 260 279 244 232 231 251 255 256 271 263 281 272 259 247 244 232 240 60 258 132 226 244 300 311 310 322 290 29 228 206 179 210 286 58 260 132 18 350 340 331